Regional Weather Roundup
Issued by NWS New Orleans/Baton Rouge, LA

Home | Current Version | Previous Version | Graphics & Text | Print | Product List | Glossary On
Versions: 1 2 3 4 5 6 7 8 9 10 11 12 13 14 15 16 17 18 19 20 21 22 23 24 25 26 27 28 29 30 31 32 33 34 35 36 37 38 39 40 41 42 43 44 45 46 47 48 49 50
087
ASUS44 KLIX 292111
RWRLIX
NEW ORLEANS REGIONAL WEATHER ROUNDUP
NATIONAL WEATHER SERVICE NEW ORLEANS LA
400 PM CDT SUN MAR 29 2015

NOTE: "FAIR" INDICATES FEW OR NO CLOUDS BELOW 12,000 FEET WITH NO
      SIGNIFICANT WEATHER AND/OR OBSTRUCTIONS TO VISIBILITY.
      SKY/WX - SKY CONDITION AND SIGNIFICANT WEATHER.
      TMP - AIR TEMPERATURE.     DP    - DEWPOINT TEMPERATURE.
      RH  - RELATIVE HUMIDITY.   PRES  - PRESSURE.
      HI  - HEAT INDEX.          WCI   - WIND CHILL INDEX.

*  THESE STATIONS ARE NOT NWS OR FAA STATIONS AND ARE NOT UNDER
   NWS QUALITY CONTROL.

LAZ038-040-048-061>063-065>067-069-292200-
SOUTHEAST LOUISIANA

CITY           SKY/WX    TMP DP  RH WIND       PRES   REMARKS
N.O. AUDUBON   NOT AVBL
N.O. INTL ARPT MOSUNNY   76  60  57 S17       30.20F
N.O. LAKEFRONT PTSUNNY   77  58  51 S16       30.21F
SLIDELL        CLOUDY    73  60  63 SE10      30.21F
BATON ROUGE    PTSUNNY   78  55  44 S17G25    30.17F
BOOTHVILLE     SUNNY     73  61  65 SE17      30.24F
BELLE CHASSE   MOSUNNY   74  60  61 S16       30.21F
BOGALUSA*        N/A     76  55  48 S8G18     30.21F
GALLIANO*      MOCLDY    78  64  61 MISG      30.22F
NEW ROADS*     MOCLDY    79  57  46 S14G21    30.16F
GONZALES*      MOCLDY    78  57  48 S12G18    30.18F
HAMMOND*       MOSUNNY   77  57  50 SE14G20   30.20F
HOUMA*         MOSUNNY   77  63  61 S12       30.21F
PORT FOURCHON* CLEAR     73  64  73 SE12      30.25F

$$

MSZ070-080>082-292200-
SOUTHERN MISSISSIPPI

CITY           SKY/WX    TMP DP  RH WIND       PRES   REMARKS
MCCOMB         PTSUNNY   76  56  49 SW13      30.17F
GULFPORT       CLOUDY    68  58  70 SE14      30.25F
BILOXI         CLOUDY    68  59  73 SE13      30.24F
PASCAGOULA     PTSUNNY   66  56  70 SE17G23   30.27F
STENNIS ARPT*  PTSUNNY   70  54  56 SE12      30.24F

$$

COASTAL OBSERVATIONS
LAKE AND NEARSHORE STATIONS

STATION/POSITION TIME  TEMP    WIND        PRES    WAVE
                       AIR SEA DIR/SP/G            HT/PER
                 (UTC) (F)     (DEG/KT/KT) (MB)    (FT/S)
PASCAGOULA       2000   68     140/ 10/ 15 1025.0
WAVELAND YACHT   2000   66 64  150/ 10/ 13 1024.7
GRAND ISLE       2000   70 67  150/  9/ 13 1023.8
SOUTHWEST PASS   2000   71 54  140/ 10/ 15 1024.7
NEW CANAL        2006   76     200/  9/ 13 1023.6
SHELL BEACH      2000   71 68  160/ 14/ 19 1024.0

OFFSHORE STATIONS

STATION/POSITION TIME  TEMP    WIND        PRES    WAVE
                       AIR SEA DIR/SP/G            HT/PER
                 (UTC) (F)     (DEG/KT/KT) (MB)    (FT/S)
64 S DAUPHIN ISL 2050   68 72  150/ 14/ 16 1025.1    3/ 5

$$




USA.gov is the U.S. government's official web portal to all federal, state and local government web resources and services.